This is the latest recevied weather packets stored in our database for station/object SQ9SMC-13. If no packets are shown the sender has not sent any weather packets the latest 1 day(s).
| Time | Temp. | Humidity | Pressure | Rain* | Wind** | Luminosity | Snow |
|---|---|---|---|---|---|---|---|
| 1777972502 | 25.56° C | 27% | 1011.2 hPa | 0 mm | 2.24 m/s, 30° | 592 W/m² | - |
| 1777972204 | 25.56° C | 26% | 1011.3 hPa | 0 mm | 2.68 m/s, 44° | 582 W/m² | - |
| 1777971903 | 25° C | 28% | 1011.4 hPa | 0 mm | 1.34 m/s, 350° | 530 W/m² | - |
| 1777971602 | 25° C | 28% | 1011.4 hPa | 0 mm | 2.24 m/s, 347° | 503 W/m² | - |
| 1777971303 | 24.44° C | 29% | 1011.5 hPa | 0 mm | 0.45 m/s, 44° | 524 W/m² | - |
| 1777971004 | 24.44° C | 30% | 1011.6 hPa | 0 mm | 2.68 m/s, 305° | 455 W/m² | - |
| 1777970704 | 24.44° C | 29% | 1011.4 hPa | 0 mm | 2.24 m/s, 8° | 325 W/m² | - |
| 1777970403 | 24.44° C | 31% | 1011.6 hPa | 0 mm | 0.45 m/s, 359° | 414 W/m² | - |
| 1777970103 | 23.89° C | 30% | 1011.5 hPa | 0 mm | 2.68 m/s, 35° | 511 W/m² | - |
| 1777969803 | 25° C | 29% | 1011.5 hPa | 0 mm | 2.68 m/s, 323° | 328 W/m² | - |
| 1777969503 | 25° C | 30% | 1011.7 hPa | 0 mm | 0 m/s | 547 W/m² | - |
| 1777969204 | 24.44° C | 30% | 1011.9 hPa | 0 mm | 0 m/s | 440 W/m² | - |
| 1777968902 | 24.44° C | 30% | 1011.8 hPa | 0 mm | 1.34 m/s, 343° | 400 W/m² | - |
| 1777968602 | 23.89° C | 30% | 1011.8 hPa | 0 mm | 1.79 m/s, 349° | 439 W/m² | - |
| 1777968304 | 23.89° C | 30% | 1011.9 hPa | 0 mm | 1.34 m/s, 343° | 495 W/m² | - |
| 1777968006 | 23.89° C | 31% | 1012 hPa | 0 mm | 0.89 m/s, 57° | 481 W/m² | - |
| 1777967704 | 23.89° C | 30% | 1012 hPa | 0 mm | 1.34 m/s, 68° | 476 W/m² | - |
| 1777967403 | 23.33° C | 31% | 1011.9 hPa | 0 mm | 1.34 m/s, 43° | 409 W/m² | - |
| 1777967102 | 23.89° C | 31% | 1012 hPa | 0 mm | 1.79 m/s, 17° | 413 W/m² | - |
| 1777966803 | 23.33° C | 32% | 1011.8 hPa | 0 mm | 1.34 m/s, 357° | 384 W/m² | - |
| 1777966503 | 22.78° C | 33% | 1012 hPa | 0 mm | 1.34 m/s, 326° | 364 W/m² | - |
| 1777966203 | 23.33° C | 32% | 1012 hPa | 0 mm | 1.34 m/s, 325° | 387 W/m² | - |
| 1777965904 | 23.33° C | 33% | 1012 hPa | 0 mm | 2.24 m/s, 15° | 426 W/m² | - |
| 1777965604 | 23.33° C | 32% | 1012.2 hPa | 0 mm | 1.79 m/s, 334° | 420 W/m² | - |
| 1777965302 | 23.33° C | 33% | 1012.2 hPa | 0 mm | 0.89 m/s, 314° | 408 W/m² | - |
* Rain latest hour (hover to see other rain measurements)
** Current wind speed in m/s (hover to see current wind gust speed)